Thunderstorms From: 15-12-2017 06:00 Until: 16-12-2017 06:00 warning for: Thunderstorms Level: Yellow info button

Although rather usual in this region, locally or potentially dangerous phenomena are expected. (such as local winds, summer thunderstorms, rising streams or high waves) Be aware and pay attention to the latest weather updates, especially if you carry out activities exposed to weather or close to a stream or shoreline. 


Meteo18 Weather Cam more information Meteo18 Weather Cam


warning for Thunderstorms more information blitzortung!


Rain radar more information rain snow radar


Visit our other weather sites:

Template documentation
and downloads

And another site



Weather Underground History page Text

Daily Summary for September 9, 2017 Units:  English    Metric   Both
« Previous Day
Next Day »
Daily Weekly Monthly Yearly Custom
  High: Low: Average:
Temperature: 65.7 °F 51.8 °F 58.1 °F
Dew Point: 56.5 °F 47.5 °F 52.3 °F
Humidity: 95 % 55 % 82 %
Wind Speed: 16 mph 0 mph 5.7 mph
Wind Gust: 25 mph - -
Wind:- - WSW
Pressure: 29.7 in 29.6 in -
Precipitation: 0.25 in    
Historical Graphs
 
 
Tabular Data for September 9, 2017
Time Temperature Dew Point Pressure Wind Wind Speed Wind Gust Humidity Rainfall Rate (Hourly)
00:02 61 °F 55.8 °F 29.7 in SSW 4 mph 17 mph 83 % 0 in
00:07 60.8 °F 55.6 °F 29.7 in SSW 7 mph 15 mph 83 % 0 in
00:12 60.8 °F 55.6 °F 29.7 in SW 7 mph 16 mph 83 % 0 in
00:17 60.6 °F 55.4 °F 29.7 in WSW 11 mph 16 mph 83 % 0 in
00:22 60.4 °F 55.6 °F 29.7 in SW 7 mph 16 mph 84 % 0 in
00:27 60.3 °F 55.8 °F 29.7 in SW 7 mph 14 mph 85 % 0 in
00:32 60.1 °F 55.6 °F 29.7 in SW 9 mph 14 mph 85 % 0 in
00:37 60.1 °F 55.9 °F 29.7 in SSW 6 mph 13 mph 86 % 0.01 in
00:47 59.7 °F 55.8 °F 29.7 in SW 6 mph 15 mph 87 % 0.01 in
00:52 59.7 °F 55.8 °F 29.7 in SW 6 mph 15 mph 87 % 0.02 in
00:57 59.7 °F 55.8 °F 29.7 in WSW 7 mph 15 mph 87 % 0.02 in
01:02 59.5 °F 55.6 °F 29.7 in SW 9 mph 13 mph 87 % 0.02 in
01:07 59.5 °F 55.6 °F 29.7 in SW 7 mph 14 mph 87 % 0.02 in
01:12 59.4 °F 55.8 °F 29.7 in SSW 4 mph 14 mph 88 % 0.03 in
01:17 59.2 °F 55.9 °F 29.7 in SW 3 mph 13 mph 89 % 0.05 in
01:22 59 °F 56.1 °F 29.7 in SW 9 mph 13 mph 90 % 0.05 in
01:27 58.8 °F 55.9 °F 29.7 in WSW 10 mph 15 mph 90 % 0.07 in
01:32 58.6 °F 55.9 °F 29.7 in SW 7 mph 16 mph 91 % 0.09 in
01:37 58.6 °F 56.3 °F 29.6 in South 6 mph 17 mph 92 % 0.09 in
01:42 58.5 °F 56.1 °F 29.6 in SW 5 mph 17 mph 92 % 0.09 in
01:47 58.5 °F 56.1 °F 29.6 in West 3 mph 16 mph 92 % 0.09 in
01:52 58.5 °F 56.5 °F 29.7 in West 8 mph 14 mph 93 % 0.1 in
01:57 58.3 °F 56.3 °F 29.7 in West 6 mph 14 mph 93 % 0.13 in
02:02 58.3 °F 56.3 °F 29.7 in West 10 mph 16 mph 93 % 0.13 in
02:07 58.3 °F 55.9 °F 29.6 in WSW 4 mph 18 mph 92 % 0.13 in
02:12 58.3 °F 55.6 °F 29.6 in West 4 mph 18 mph 91 % 0.12 in
02:17 57.9 °F 55 °F 29.6 in SW 6 mph 18 mph 90 % 0.11 in
02:22 57.7 °F 54.5 °F 29.6 in WSW 11 mph 17 mph 89 % 0.09 in
02:27 57.6 °F 54.3 °F 29.6 in SSW 5 mph 17 mph 89 % 0.08 in
02:32 57.4 °F 54.5 °F 29.6 in SSW 6 mph 17 mph 90 % 0.08 in
02:37 57.2 °F 54.7 °F 29.6 in SW 3 mph 13 mph 91 % 0.06 in
02:42 57 °F 54.5 °F 29.6 in SSW 5 mph 13 mph 91 % 0.07 in
02:47 56.8 °F 54.3 °F 29.6 in SW 6 mph 13 mph 91 % 0.06 in
02:52 56.8 °F 54.5 °F 29.6 in SW 12 mph 12 mph 92 % 0.06 in
02:57 56.7 °F 54.3 °F 29.6 in SW 8 mph 13 mph 92 % 0.03 in
03:02 56.7 °F 54.3 °F 29.6 in WSW 14 mph 14 mph 92 % 0.02 in
03:07 56.5 °F 54.1 °F 29.6 in WSW 5 mph 15 mph 92 % 0.02 in
03:12 56.3 °F 54 °F 29.6 in SSW 7 mph 15 mph 92 % 0.02 in
03:17 56.1 °F 54.1 °F 29.6 in SW 4 mph 15 mph 93 % 0.02 in
03:22 56.1 °F 54.1 °F 29.6 in SW 9 mph 15 mph 93 % 0.02 in
03:27 55.9 °F 54 °F 29.6 in SSW 5 mph 15 mph 93 % 0.02 in
03:37 55.9 °F 54.3 °F 29.6 in SW 5 mph 15 mph 94 % 0.05 in
03:42 55.9 °F 54.3 °F 29.6 in SSW 4 mph 15 mph 94 % 0.04 in
03:52 55.8 °F 54.1 °F 29.6 in SW 5 mph 14 mph 94 % 0.03 in
03:57 55.6 °F 54 °F 29.6 in SW 5 mph 14 mph 94 % 0.03 in
04:02 55.6 °F 54 °F 29.6 in SW 10 mph 14 mph 94 % 0.03 in
04:07 55.6 °F 53.6 °F 29.6 in SSW 5 mph 14 mph 93 % 0.03 in
04:12 55.4 °F 53.4 °F 29.6 in SW 6 mph 14 mph 93 % 0.03 in
04:17 55.2 °F 53.2 °F 29.6 in SSW 6 mph 14 mph 93 % 0.03 in
04:22 55.2 °F 53.2 °F 29.6 in SW 5 mph 13 mph 93 % 0.02 in
04:27 55 °F 53.1 °F 29.6 in SSW 3 mph 12 mph 93 % 0.02 in
04:32 55 °F 53.1 °F 29.6 in SW 4 mph 12 mph 93 % 0 in
04:42 54.9 °F 53.2 °F 29.6 in SSW 4 mph 10 mph 94 % 0 in
04:47 54.9 °F 53.2 °F 29.6 in SSW 6 mph 8 mph 94 % 0 in
04:52 54.9 °F 53.2 °F 29.6 in South 3 mph 8 mph 94 % 0 in
04:57 54.7 °F 53.1 °F 29.6 in SW 5 mph 7 mph 94 % 0 in
05:02 54.9 °F 53.2 °F 29.6 in SW 3 mph 7 mph 94 % 0 in
05:07 54.9 °F 53.2 °F 29.6 in SW 5 mph 8 mph 94 % 0.01 in
05:22 54.7 °F 53.1 °F 29.6 in SSW 4 mph 12 mph 94 % 0.02 in
05:27 54.7 °F 53.1 °F 29.6 in South 5 mph 12 mph 94 % 0.02 in
05:32 54.7 °F 53.1 °F 29.6 in SW 2 mph 12 mph 94 % 0.02 in
05:37 54.7 °F 53.2 °F 29.6 in SSW 4 mph 7 mph 95 % 0.02 in
05:42 54.7 °F 53.2 °F 29.6 in SSW 3 mph 7 mph 95 % 0.02 in
05:47 54.7 °F 53.2 °F 29.6 in WSW 4 mph 7 mph 95 % 0.02 in
05:52 54.7 °F 53.2 °F 29.6 in SW 5 mph 7 mph 95 % 0.02 in
06:02 54.7 °F 53.2 °F 29.6 in SW 3 mph 7 mph 95 % 0.01 in
06:12 54.9 °F 53.2 °F 29.6 in SW 3 mph 9 mph 94 % 0.01 in
06:17 54.9 °F 53.2 °F 29.6 in WSW 4 mph 7 mph 94 % 0.01 in
06:22 55 °F 53.4 °F 29.6 in SSW 9 mph 9 mph 94 % 0 in
06:27 55 °F 53.4 °F 29.6 in SW 4 mph 11 mph 94 % 0 in
06:32 55 °F 53.4 °F 29.6 in SW 6 mph 11 mph 94 % 0 in
06:37 55.2 °F 53.6 °F 29.6 in SSW 4 mph 11 mph 94 % 0 in
06:42 55.2 °F 53.6 °F 29.6 in SW 5 mph 11 mph 94 % 0 in
06:52 55.2 °F 53.6 °F 29.6 in South 3 mph 11 mph 94 % 0 in
06:57 55.4 °F 53.8 °F 29.6 in SW 3 mph 12 mph 94 % 0 in
07:02 55.4 °F 53.8 °F 29.6 in SW 7 mph 12 mph 94 % 0 in
07:07 55.4 °F 53.8 °F 29.6 in SW 5 mph 10 mph 94 % 0 in
07:12 55.6 °F 54 °F 29.6 in WSW 3 mph 10 mph 94 % 0 in
07:17 55.6 °F 54 °F 29.6 in WSW 8 mph 11 mph 94 % 0 in
07:22 55.6 °F 54 °F 29.6 in SSW 5 mph 11 mph 94 % 0 in
07:27 55.6 °F 54 °F 29.6 in SW 4 mph 11 mph 94 % 0 in
07:32 55.8 °F 54.1 °F 29.6 in WSW 6 mph 11 mph 94 % 0 in
07:42 55.8 °F 54.1 °F 29.6 in West 6 mph 11 mph 94 % 0 in
07:47 55.8 °F 54.1 °F 29.6 in West 7 mph 11 mph 94 % 0 in
07:52 55.9 °F 54.3 °F 29.6 in WSW 4 mph 11 mph 94 % 0 in
08:02 55.9 °F 54 °F 29.6 in SW 7 mph 10 mph 93 % 0 in
08:12 56.1 °F 54.1 °F 29.6 in WSW 5 mph 11 mph 93 % 0 in
08:17 56.1 °F 54.1 °F 29.6 in SW 7 mph 11 mph 93 % 0 in
08:22 56.1 °F 54.1 °F 29.6 in WSW 11 mph 11 mph 93 % 0 in
08:32 56.1 °F 53.8 °F 29.6 in West 8 mph 12 mph 92 % 0 in
08:37 56.1 °F 53.8 °F 29.6 in SSW 6 mph 13 mph 92 % 0 in
08:42 56.3 °F 53.8 °F 29.6 in WSW 13 mph 13 mph 91 % 0 in
08:47 56.3 °F 53.8 °F 29.6 in SW 7 mph 14 mph 91 % 0 in
08:52 56.5 °F 54 °F 29.6 in SW 6 mph 14 mph 91 % 0 in
08:57 56.7 °F 54.1 °F 29.6 in SW 8 mph 14 mph 91 % 0 in
09:02 56.7 °F 53.8 °F 29.6 in West 5 mph 14 mph 90 % 0 in
09:12 56.7 °F 53.8 °F 29.6 in SW 4 mph 15 mph 90 % 0 in
09:22 56.7 °F 53.4 °F 29.6 in West 4 mph 15 mph 89 % 0 in
09:27 56.7 °F 53.1 °F 29.6 in SW 4 mph 15 mph 88 % 0 in
09:32 56.7 °F 53.1 °F 29.6 in WSW 5 mph 15 mph 88 % 0 in
09:37 56.7 °F 53.1 °F 29.6 in West 5 mph 12 mph 88 % 0 in
09:42 56.8 °F 53.6 °F 29.6 in WSW 2 mph 12 mph 89 % 0 in
09:47 56.8 °F 53.6 °F 29.6 in WSW 4 mph 11 mph 89 % 0 in
09:57 57.6 °F 53.8 °F 29.6 in WSW 6 mph 12 mph 87 % 0 in
10:02 57.6 °F 53.8 °F 29.6 in WNW 10 mph 12 mph 87 % 0 in
10:07 57.7 °F 53.6 °F 29.6 in SW 7 mph 14 mph 86 % 0 in
10:12 57.9 °F 53.8 °F 29.6 in West 11 mph 14 mph 86 % 0 in
10:17 57.7 °F 53.2 °F 29.6 in West 6 mph 15 mph 85 % 0 in
10:22 57.9 °F 53.4 °F 29.6 in WSW 4 mph 15 mph 85 % 0 in
10:27 57.9 °F 53.8 °F 29.6 in West 4 mph 15 mph 86 % 0 in
10:32 57.7 °F 52.9 °F 29.6 in West 10 mph 15 mph 84 % 0 in
10:37 58.3 °F 52.9 °F 29.6 in West 10 mph 17 mph 82 % 0 in
10:42 58.6 °F 52.9 °F 29.6 in West 11 mph 17 mph 81 % 0 in
10:47 59 °F 52.9 °F 29.6 in WSW 8 mph 14 mph 80 % 0 in
10:52 58.6 °F 52.9 °F 29.6 in West 4 mph 14 mph 81 % 0 in
11:02 58.6 °F 52.9 °F 29.6 in WSW 6 mph 15 mph 81 % 0 in
11:12 59.4 °F 52.9 °F 29.6 in SSW 10 mph 15 mph 79 % 0 in
11:17 59.5 °F 52.3 °F 29.6 in WSW 7 mph 15 mph 77 % 0 in
11:22 59.4 °F 52.5 °F 29.7 in West 8 mph 15 mph 78 % 0 in
11:27 59.4 °F 52.9 °F 29.7 in West 6 mph 15 mph 79 % 0 in
11:32 59.4 °F 53.2 °F 29.7 in West 6 mph 15 mph 80 % 0 in
11:37 59.5 °F 53.8 °F 29.7 in SW 8 mph 14 mph 81 % 0 in
11:42 59.4 °F 52.9 °F 29.7 in SW 6 mph 14 mph 79 % 0 in
11:47 60.1 °F 53.2 °F 29.7 in West 5 mph 15 mph 78 % 0 in
11:57 59.7 °F 52.2 °F 29.7 in WSW 11 mph 16 mph 76 % 0 in
12:07 57.7 °F 53.2 °F 29.7 in West 3 mph 21 mph 85 % 0.01 in
12:12 57.7 °F 52.7 °F 29.7 in WSW 7 mph 21 mph 83 % 0.01 in
12:17 58.6 °F 53.8 °F 29.7 in SW 3 mph 17 mph 84 % 0.01 in
12:22 59.9 °F 54.1 °F 29.7 in WNW 10 mph 11 mph 81 % 0.01 in
12:32 60.3 °F 53.4 °F 29.6 in WSW 8 mph 17 mph 78 % 0.01 in
12:42 60.6 °F 52.7 °F 29.6 in West 7 mph 18 mph 75 % 0.01 in
12:52 61.9 °F 54.3 °F 29.6 in NW 16 mph 18 mph 76 % 0.01 in
13:02 61.5 °F 52.3 °F 29.6 in WNW 7 mph 20 mph 72 % 0 in
13:12 61.3 °F 52.2 °F 29.6 in SW 11 mph 20 mph 72 % 0 in
13:17 61.5 °F 51.3 °F 29.6 in West 6 mph 16 mph 69 % 0 in
13:22 61.2 °F 50.9 °F 29.6 in SW 9 mph 16 mph 69 % 0 in
13:27 61.5 °F 51.6 °F 29.6 in WSW 10 mph 19 mph 70 % 0 in
13:32 61.3 °F 52.7 °F 29.6 in WNW 9 mph 19 mph 73 % 0 in
13:37 61.3 °F 51.1 °F 29.6 in WSW 11 mph 19 mph 69 % 0 in
13:42 61.9 °F 51.6 °F 29.6 in West 8 mph 17 mph 69 % 0 in
13:47 61.9 °F 51.3 °F 29.6 in West 11 mph 17 mph 68 % 0 in
13:52 62.1 °F 50.9 °F 29.6 in West 12 mph 15 mph 67 % 0 in
13:57 62.4 °F 50.9 °F 29.6 in WNW 11 mph 16 mph 66 % 0 in
14:02 62.6 °F 51.4 °F 29.6 in West 15 mph 20 mph 67 % 0 in
14:12 62.8 °F 50.4 °F 29.6 in West 5 mph 20 mph 64 % 0 in
14:17 63.3 °F 51.4 °F 29.6 in West 9 mph 19 mph 65 % 0 in
14:22 63.7 °F 51.3 °F 29.6 in WSW 13 mph 18 mph 64 % 0 in
14:27 63.5 °F 51.1 °F 29.6 in WNW 10 mph 18 mph 64 % 0 in
14:32 63.5 °F 51.1 °F 29.6 in West 8 mph 17 mph 64 % 0 in
14:42 63.7 °F 51.6 °F 29.6 in West 7 mph 17 mph 65 % 0 in
14:47 63.3 °F 51.4 °F 29.6 in WSW 9 mph 17 mph 65 % 0 in
14:52 63 °F 51.1 °F 29.6 in WSW 9 mph 13 mph 65 % 0 in
14:57 63.1 °F 50.7 °F 29.6 in West 13 mph 14 mph 64 % 0 in
15:02 63.5 °F 50.2 °F 29.6 in WNW 5 mph 16 mph 62 % 0 in
15:07 63.7 °F 50 °F 29.6 in WSW 7 mph 16 mph 61 % 0 in
15:12 63.9 °F 50.5 °F 29.6 in SSW 12 mph 19 mph 62 % 0 in
15:17 63.3 °F 49.6 °F 29.6 in WSW 7 mph 19 mph 61 % 0 in
15:22 63.5 °F 50.2 °F 29.6 in WSW 9 mph 19 mph 62 % 0 in
15:32 64 °F 51.6 °F 29.6 in WSW 7 mph 16 mph 64 % 0 in
15:37 64.6 °F 51.3 °F 29.6 in West 8 mph 18 mph 62 % 0 in
15:42 64.8 °F 51.4 °F 29.6 in West 4 mph 18 mph 62 % 0 in
15:47 64.8 °F 51.1 °F 29.6 in SW 8 mph 18 mph 61 % 0 in
15:52 64 °F 50.7 °F 29.6 in West 6 mph 17 mph 62 % 0 in
15:57 64 °F 50.7 °F 29.6 in West 5 mph 17 mph 62 % 0 in
16:02 64 °F 52 °F 29.6 in NW 14 mph 16 mph 65 % 0 in
16:12 63 °F 52.2 °F 29.6 in WNW 9 mph 16 mph 68 % 0 in
16:17 62.4 °F 49.6 °F 29.6 in WNW 7 mph 16 mph 63 % 0 in
16:22 63.1 °F 51.3 °F 29.6 in WSW 6 mph 16 mph 65 % 0 in
16:32 63.7 °F 50.9 °F 29.6 in WNW 10 mph 13 mph 63 % 0 in
16:37 64 °F 50.7 °F 29.6 in SW 8 mph 13 mph 62 % 0 in
16:42 64 °F 50.7 °F 29.6 in West 8 mph 16 mph 62 % 0 in
16:47 64 °F 50.7 °F 29.6 in WNW 6 mph 16 mph 62 % 0 in
16:52 63.9 °F 50.5 °F 29.6 in West 4 mph 16 mph 62 % 0 in
16:57 63.7 °F 50 °F 29.6 in West 5 mph 16 mph 61 % 0 in
17:02 63.7 °F 51.3 °F 29.6 in WSW 3 mph 16 mph 64 % 0 in
17:12 64.2 °F 51.4 °F 29.6 in WSW 9 mph 12 mph 63 % 0 in
17:17 64.2 °F 51.8 °F 29.6 in WSW 5 mph 14 mph 64 % 0 in
17:22 64.6 °F 49.5 °F 29.6 in West 7 mph 14 mph 58 % 0 in
17:32 64.8 °F 48.2 °F 29.6 in NW 10 mph 15 mph 55 % 0 in
17:42 64.9 °F 48.4 °F 29.6 in WNW 9 mph 14 mph 55 % 0 in
17:47 65.1 °F 48.6 °F 29.6 in WSW 5 mph 14 mph 55 % 0 in
17:52 65.5 °F 48.9 °F 29.6 in WSW 9 mph 12 mph 55 % 0 in
17:57 65.7 °F 49.1 °F 29.6 in West 7 mph 11 mph 55 % 0 in
18:02 65.5 °F 48.9 °F 29.6 in WNW 5 mph 15 mph 55 % 0 in
18:12 64.9 °F 49.3 °F 29.6 in West 5 mph 15 mph 57 % 0 in
18:17 64.2 °F 49.6 °F 29.6 in NNW 7 mph 14 mph 59 % 0 in
18:22 61 °F 47.5 °F 29.6 in NW 12 mph 14 mph 61 % 0 in
18:27 59.2 °F 47.8 °F 29.6 in West 9 mph 25 mph 66 % 0 in
18:32 58.5 °F 48.4 °F 29.6 in NW 5 mph 25 mph 69 % 0 in
18:42 57 °F 50.2 °F 29.6 in NW 1 mph 16 mph 78 % 0.02 in
18:47 56.8 °F 50.7 °F 29.6 in NW 2 mph 16 mph 80 % 0.02 in
18:52 57 °F 51.3 °F 29.6 in NNW 2 mph 10 mph 81 % 0.02 in
18:57 57.6 °F 51.8 °F 29.6 in Calm   6 mph 81 % 0.02 in
19:02 58.3 °F 52.2 °F 29.6 in NW 1 mph 6 mph 80 % 0.02 in
19:12 58.8 °F 51.6 °F 29.6 in WNW 2 mph 8 mph 77 % 0.02 in
19:17 59.2 °F 50.9 °F 29.6 in NW 5 mph 8 mph 74 % 0.02 in
19:22 59 °F 51.1 °F 29.6 in NW 6 mph 10 mph 75 % 0.02 in
19:27 58.5 °F 50.9 °F 29.6 in WNW 2 mph 10 mph 76 % 0.02 in
19:32 57.9 °F 51.4 °F 29.6 in WNW 2 mph 10 mph 79 % 0.02 in
19:37 57.9 °F 51.8 °F 29.6 in WNW 3 mph 10 mph 80 % 0.01 in
19:42 57.6 °F 51.8 °F 29.6 in NNW 5 mph 9 mph 81 % 0 in
19:47 57.4 °F 52 °F 29.6 in NNW 5 mph 9 mph 82 % 0 in
19:52 57 °F 52 °F 29.6 in NNW 5 mph 9 mph 83 % 0 in
19:57 57 °F 52 °F 29.6 in NNW 4 mph 7 mph 83 % 0 in
20:02 56.8 °F 52 °F 29.6 in NNW 2 mph 7 mph 84 % 0 in
20:12 56.5 °F 52 °F 29.6 in Calm   6 mph 85 % 0 in
20:17 56.1 °F 51.4 °F 29.6 in NW 2 mph 5 mph 84 % 0 in
20:22 56.1 °F 51.1 °F 29.6 in NNW 1 mph 5 mph 83 % 0 in
20:27 55.9 °F 50.5 °F 29.7 in North 4 mph 5 mph 82 % 0 in
20:32 55.6 °F 50.2 °F 29.7 in WNW 2 mph 5 mph 82 % 0 in
20:37 55.2 °F 50.2 °F 29.7 in NW 3 mph 4 mph 83 % 0 in
20:42 55 °F 50 °F 29.7 in NW 1 mph 5 mph 83 % 0 in
20:47 55 °F 50 °F 29.7 in WNW 1 mph 5 mph 83 % 0 in
20:52 54.9 °F 49.8 °F 29.7 in NW 4 mph 5 mph 83 % 0 in
20:57 54.9 °F 49.8 °F 29.7 in WNW 1 mph 5 mph 83 % 0 in
21:02 54.9 °F 49.5 °F 29.7 in NW 1 mph 5 mph 82 % 0 in
21:12 54.9 °F 49.1 °F 29.7 in WNW 3 mph 5 mph 81 % 0 in
21:17 55 °F 49.3 °F 29.7 in WNW 3 mph 5 mph 81 % 0 in
21:22 55.2 °F 49.5 °F 29.7 in Calm   5 mph 81 % 0 in
21:27 55.2 °F 49.5 °F 29.7 in Calm   5 mph 81 % 0 in
21:32 55.2 °F 49.5 °F 29.7 in SW 2 mph 4 mph 81 % 0 in
21:42 55.2 °F 50.2 °F 29.7 in SW 5 mph 5 mph 83 % 0 in
21:47 55 °F 50 °F 29.7 in SSW 4 mph 7 mph 83 % 0 in
21:52 54.9 °F 49.8 °F 29.7 in SW 6 mph 7 mph 83 % 0 in
21:57 54.9 °F 50.2 °F 29.7 in WSW 6 mph 7 mph 84 % 0 in
22:02 54.7 °F 50.2 °F 29.7 in WSW 6 mph 7 mph 85 % 0 in
22:07 54.7 °F 50.5 °F 29.7 in SW 2 mph 9 mph 86 % 0 in
22:12 54.5 °F 50.4 °F 29.7 in SW 3 mph 9 mph 86 % 0 in
22:17 54.3 °F 50.2 °F 29.7 in WSW 3 mph 8 mph 86 % 0 in
22:22 54.3 °F 50.2 °F 29.7 in WSW 3 mph 5 mph 86 % 0 in
22:32 54.1 °F 50.7 °F 29.7 in West 3 mph 3 mph 88 % 0 in
22:37 54 °F 50.5 °F 29.7 in WNW 3 mph 4 mph 88 % 0 in
22:42 54 °F 50.5 °F 29.7 in West 4 mph 5 mph 88 % 0 in
22:47 54 °F 50.5 °F 29.7 in WNW 1 mph 5 mph 88 % 0 in
22:52 53.8 °F 50.4 °F 29.7 in Calm   5 mph 88 % 0 in
22:57 53.4 °F 50 °F 29.7 in SW 1 mph 5 mph 88 % 0 in
23:02 53.2 °F 50 °F 29.7 in Calm   3 mph 89 % 0 in
23:07 52.9 °F 49.6 °F 29.7 in Calm   3 mph 89 % 0 in
23:12 52.7 °F 49.5 °F 29.7 in Calm   2 mph 89 % 0 in
23:17 52.5 °F 49.6 °F 29.7 in Calm     90 % 0 in
23:22 52.3 °F 49.5 °F 29.7 in Calm     90 % 0 in
23:27 52.2 °F 49.3 °F 29.7 in Calm     90 % 0 in
23:32 52 °F 49.1 °F 29.7 in Calm     90 % 0 in
23:37 51.8 °F 49.3 °F 29.7 in Calm     91 % 0 in
23:42 51.8 °F 49.3 °F 29.7 in Calm     91 % 0 in
23:47 52 °F 49.6 °F 29.7 in Calm     92 % 0 in
23:52 52 °F 49.5 °F 29.7 in Calm     91 % 0 in
23:57 52 °F 49.5 °F 29.7 in Calm     91 % 0 in
Meteo18
Compliments of Weather Underground - 4 mb

Script developed by  Jim McMurry - jmcmurry@mwt.net Adapted for the template by  Wim van der Kuil - Leuven-Template.eu

You find our weather info also at:

European Weather Network

Weather Underground

Equipment we use:

Weather-station
Davis Vue

Weather-program
Meteohub

Weather-server
Raspberry PI 2 B+

Provider
1 and 1

Davis Vue

Meteohub

Raspberry PI 2 B+

1 and 1